Regional Weather Roundup
Issued by NWS

Home | Current Version | Previous Version | Graphics & Text | Print | Product List | Glossary On
Versions: 1 2 3 4 5 6 7 8 9 10 11 12 13 14 15 16 17 18 19 20 21 22 23 24 25 26 27 28 29 30 31 32 33 34 35 36 37 38 39 40 41 42 43 44 45 46 47 48 49 50
000
ASUS43 KBIS 161410
RWRND

NORTH DAKOTA REGIONAL WEATHER ROUNDUP
NATIONAL WEATHER SERVICE BISMARCK ND
800 AM CST MON JAN 16 2017

NOTE: "FAIR" INDICATES FEW OR NO CLOUDS BELOW 12,000 FEET WITH NO
SIGNIFICANT WEATHER AND/OR OBSTRUCTIONS TO VISIBILITY.


NDZ001>003-009>011-017-161500-
NORTHWEST NORTH DAKOTA

CITY           SKY/WX    TMP DP  RH WIND       PRES   REMARKS
WILLISTON      FAIR       6   2  83 S6        30.11R WCI  -4
MINOT          FAIR      16  10  77 W9        30.02S WCI   4
MINOT AFB      CLOUDY    11   7  83 NW13      30.02R WCI  -4
$$

NDZ018>021-031>035-040>046-161500-
SOUTHWEST NORTH DAKOTA

CITY           SKY/WX    TMP DP  RH WIND       PRES   REMARKS
BISMARCK       FAIR      -4 -10  75 CALM      30.09R
DICKINSON      FAIR      13   5  70 W15       30.04R WCI  -3
GARRISON         N/A     11   4  73 W9        30.04S WCI  -2
HETTINGER ARPT CLOUDY    11   4  73 NW8       30.08R WCI  -1
$$

NDZ004>008-012>016-024-026-027-054-161500-
NORTHEAST NORTH DAKOTA

CITY           SKY/WX    TMP DP  RH WIND       PRES   REMARKS
GRAND FORKS    CLOUDY     4  -2  76 S9        30.06R WCI -10
GRND FRKS AFB  CLOUDY    10   2  72 W7        30.05R WCI  -1
DEVILS LAKE    FAIR       6   2  83 W7        30.03R WCI  -6
$$

NDZ022-023-025-028>030-036>039-047>053-161500-
SOUTHEAST NORTH DAKOTA

CITY           SKY/WX    TMP DP  RH WIND       PRES   REMARKS
FARGO          CLOUDY     9   5  84 S10       30.09R WCI  -5
JAMESTOWN      FAIR      10   3  73 W8        30.03S WCI  -2
$$





USA.gov is the U.S. government's official web portal to all federal, state and local government web resources and services.